Find Starlink 11413

NORAD ID: 62593 Int'l Des: 2025-008 Owner: SPXS Country: US Constellation: starlink operational
LEOCIRCULAR

当前视图

正在加载3D地球...

关于 Starlink 11413

正在加载描述...

即将过境

Passes for default location (London). Set your location on the main map for personalized predictions.

高度历史

Loading altitude history...

两行轨道根数

1 62593U 25008G 26159.12133647 .00186832 00000-0 14197-2 0 9992
2 62593 43.0005 301.3548 0005028 267.7884 92.2408 15.70952388 81406
Epoch: Jun 8, 2026 • Age: 21 hours

当前状态

高度 365.1 km
速度 7.69 km/s
星下点 -42.97°S, 43.29°W
发射日期 Jan 13, 2025
运行时间 1.3 years
类型 internet

技术详情

分类 Payload
质量 960.00 kg
干质量 910.00 kg
总质量 960.00 kg
长度 0.30 m
直径 4.10 m
跨度 29.00 m
形状 Box + pan
制造商 SPXS
平台类型 Starlink V2MD
阶段状态 In Orbit
所有者/国家 SPXS/US

Most Searched